Terug naar catalogus

FENGYUN 1C DEB

ActiefPO
NORAD 32152·DEBRIS·🇨🇳 China

Gelanceerd May 10, 1999 vanaf Taiyuan Satellite Launch Center

Loading…

Volgende Passages (komende 24 uur)

TLE

VerouderendSource: Space-Track

Epoch: Sep 6, 2026, 05:41 UTC

1 32152U 99025CSW 26249.23730542  .00003037  00000-0  63125-3 0  9990
2 32152  98.7798  70.1531 0053337 102.0856 258.6325 14.60005761665124

Volg FENGYUN 1C DEB in realtime met AllMySat

Download on the App Store